Regional Weather Roundup
Issued by NWS

Home | Current Version | Previous Version | Text Only | Print | Product List | Glossary Off
Versions: 1 2 3 4 5 6 7 8 9 10 11 12 13 14 15 16 17 18 19 20 21 22 23 24 25 26 27 28 29 30 31 32 33 34 35 36 37 38 39 40 41 42 43 44 45 46 47 48 49 50

046
ASUS43 KLOT 110211
RWRIL

ILLINOIS REGIONAL WEATHER ROUNDUP
NATIONAL WEATHER SERVICE CHICAGO/ROMEOVILLE IL
800 PM CST SAT DEC 10 2016

NOTE: "FAIR" INDICATES FEW OR NO CLOUDS BELOW 12,000 FEET WITH NO
SIGNIFICANT WEATHER AND/OR OBSTRUCTIONS TO VISIBILITY.

* THESE STATIONS ARE NOT UNDER NWS QUALITY CONTROL. THEY ALSO MAY NOT
  REPORT WEATHER SUCH AS PRECIPITATION OR FOG.

ILZ001-002-007-009-015-016-024-110300-
NORTHWEST ILLINOIS

CITY           SKY/WX    TMP DP  RH WIND       PRES   REMARKS
MOLINE         CLOUDY    24  18  77 E12       30.26F WCI  13
STERLING*      LGT SNOW  22  20  92 SE9       30.29F FOG     WCI  12
SAVANNA*       CLOUDY    22  19  87 SE9       30.27F WCI  12
$$

ILZ003-004-008-010-011-017-018-110300-
NORTH CENTRAL ILLINOIS

CITY           SKY/WX    TMP DP  RH WIND       PRES   REMARKS
ROCKFORD       LGT SNOW  21  18  88 SE9       30.32F FOG     WCI  11
FREEPORT*      LGT SNOW  21  19  91 SE9       30.29F WCI  10
ROCHELLE*      LGT SNOW  22  20  92 SE9       30.31F WCI  12
DE KALB*       LGT SNOW  21  19  93 SE9       30.31F WCI  11
$$

ILZ005-006-012>014-019>023-110300-
NORTHEAST ILLINOIS

CITY           SKY/WX    TMP DP  RH WIND       PRES   REMARKS
CHICAGO-OHARE  LGT SNOW  22  20  92 SE10      30.34F VSB 3/4 WCI  11
CHICAGO-MIDWAY LGT SNOW  23  19  85 SE5       30.35F FOG     WCI  17
AURORA         LGT SNOW  23  20  88 SE9       30.33F FOG     WCI  13
LANSING*       LGT SNOW  22  22  98 SE5       30.37F VSB 1   WCI  16
JOLIET*        LGT SNOW  24  22  93 SE5       30.35F WCI  18
WAUKEGAN       LGT SNOW  21  19  92 CALM      30.33F FOG
DUPAGE AIRPORT LGT SNOW  22  18  85 SE7       30.32F FOG     WCI  13
KANKAKEE*      FLURRIES  24  22  92 CALM      30.37F
WHEELING       LGT SNOW  21  19  92 SE5       30.36F VSB 3/4 WCI  15
MORRIS*        LGT SNOW  24  21  91 CALM      30.33F
ROMEOVILLE*    LGT SNOW  22  22 100 SE7       30.34F WCI  13
NORTHERLY ISL    N/A     23  21  92 S3          N/A
$$

LMZ740>746-110300-
SOUTHERN LAKE MICHIGAN

STATION/POSITION SKY/WX   TEMP    WIND        PRES    VSBY  WAVE
                          AIR SEA DIR/SP/G                  HT/PER
                          (F)     (DEG/KT/KT) (MB)    (MI)  (FT/S)
BURNHAM HARBOR             23     200/  7/  8   N/A
CALUMET HARBOR             22     170/  5/  7 1027.9F
BURNS HARBOR               23     190/  6/ 10 1029.5F
$$

ILZ025>027-034>036-040-047-049-050-058-095>099-110300-
WEST-CENTRAL ILLINOIS

CITY           SKY/WX    TMP DP  RH WIND       PRES   REMARKS
QUINCY         CLOUDY    30  19  63 SE14      30.19F WCI  19
GALESBURG*     CLOUDY    24  20  87 E10       30.23F WCI  13
MACOMB*        CLOUDY    28  20  72 SE13      30.25F WCI  17
JACKSONVILLE*  CLOUDY    31  20  65 SE12      30.23F WCI  21
PITTSFIELD*    CLOUDY    32  21  65 SE12      30.23F WCI  23
$$

ILZ028>032-037-038-041>044-048-051>054-059>061-110300-
CENTRAL ILLINOIS

CITY           SKY/WX    TMP DP  RH WIND       PRES   REMARKS
PONTIAC        LGT SNOW  26  25  97 SE10      30.34F WCI  15
BLOOMINGTON    FLURRIES  26  19  74 SE14      30.30F WCI  14
DECATUR        CLOUDY    28  18  66 SE13      30.32F WCI  17
PEORIA         CLOUDY    26  20  77 SE9       30.28F WCI  17
LACON*         MIX PCPN  24  21  90 SE6       30.30F WCI  17
LINCOLN*       CLOUDY    29  20  69 SE12G21   30.30F WCI  20
SPRINGFIELD    CLOUDY    31  20  63 SE14      30.27F WCI  21
TAYLORVILLE    CLOUDY    30  20  67 SE12      30.29F WCI  20
$$

ILZ033-039-045-046-055>057-062-063-110300-
EAST-CENTRAL ILLINOIS

CITY           SKY/WX    TMP DP  RH WIND       PRES   REMARKS
CHAMPAIGN      CLOUDY    28  18  66 SE12      30.34F WCI  18
RANTOUL*       CLOUDY    28  22  76 SE12      30.33F WCI  18
MATTOON        CLOUDY    28  17  63 SE8       30.33F WCI  20
PARIS*         CLOUDY    28  20  73 SE9       30.36F WCI  19
$$

ILZ079-100>102-110300-
SOUTHWEST ILLINOIS

CITY           SKY/WX    TMP DP  RH WIND       PRES   REMARKS
ALTON          CLOUDY    32  19  59 SE14      30.29F WCI  22
BELLEVILLE     CLOUDY    33  21  61 SE10      30.29F WCI  25
CAHOKIA*       CLOUDY    34  20  56 S10       30.29F WCI  26
SPARTA*        CLOUDY    33  20  59 SE5       30.33F WCI  28
$$

ILZ064>066-069>071-074>076-080>082-084>086-088>090-092>094-110300-
SOUTH-CENTRAL ILLINOIS

CITY           SKY/WX    TMP DP  RH WIND       PRES   REMARKS
CARBONDALE     CLOUDY    34  20  56 CALM      30.35F
CAIRO*         CLOUDY    37  19  49 S9        30.35F WCI  30
EFFINGHAM*     CLOUDY    31  22  67 E10G16    30.35F WCI  22
MARION         CLOUDY    36  18  48 S3        30.35F
CENTRALIA*     CLOUDY    33  22  63 SE8       30.32F WCI  26
SALEM*         CLOUDY    33  19  57 SE7       30.33F WCI  27
METROPOLIS*    CLOUDY    37  15  41 SE5       30.37F WCI  33
$$

ILZ067-068-072-073-078-083-087-091-110300-
SOUTHEAST ILLINOIS

CITY           SKY/WX    TMP DP  RH WIND       PRES   REMARKS
LAWRENCEVILLE  CLOUDY    30  19  63 SE9       30.38F WCI  22
FLORA*         CLOUDY    33  21  63 SE7       30.36F WCI  26
FAIRFIELD*     CLOUDY    32  19  59 SE6       30.35F WCI  26
HARRISBURG*    CLOUDY    33  25  75 SE5       30.36F WCI  28
ROBINSON*      CLOUDY    29  20  69 SE7       30.39F WCI  22
CARMI*         CLOUDY    32  22  67 SE12      30.36F WCI  23
$$

ABBREVIATIONS USED IN REMARKS
   TC - TEMPERATURE IN CELSIUS
  WCI - WIND CHILL INDEX
   HX - HEAT INDEX
  VSB - VISIBILITY
$$





USA.gov is the U.S. government's official web portal to all federal, state and local government web resources and services.